TimeCST,TemperatureF,Dew PointF,Humidity,Sea Level PressureIn,VisibilityMPH,Wind Direction,Wind SpeedMPH,Gust SpeedMPH,PrecipitationIn,Events,Conditions,WindDirDegrees,DateUTC
12:42 AM,17.6,14.0,86,30.37,7.0,NW,4.6,-,N/A,,Scattered Clouds,320,2013-02-09 06:42:00
12:52 AM,18.0,15.1,88,30.41,7.0,Calm,Calm,-,N/A,,Scattered Clouds,0,2013-02-09 06:52:00
1:52 AM,17.1,12.9,84,30.41,6.0,Calm,Calm,-,N/A,,Partly Cloudy,0,2013-02-09 07:52:00
2:52 AM,16.0,14.0,92,30.42,7.0,Calm,Calm,-,N/A,,Clear,0,2013-02-09 08:52:00
3:52 AM,12.0,10.0,92,30.40,5.0,Calm,Calm,-,N/A,,Clear,0,2013-02-09 09:52:00
4:48 AM,12.2,10.4,92,30.37,4.0,Calm,Calm,-,N/A,,Mostly Cloudy,0,2013-02-09 10:48:00
4:52 AM,10.9,9.0,92,30.42,4.0,Calm,Calm,-,N/A,,Mostly Cloudy,0,2013-02-09 10:52:00
5:52 AM,14.0,12.9,95,30.40,5.0,Calm,Calm,-,N/A,,Mostly Cloudy,0,2013-02-09 11:52:00
6:52 AM,15.1,12.9,91,30.40,5.0,Calm,Calm,-,N/A,,Overcast,0,2013-02-09 12:52:00
7:52 AM,15.1,14.0,95,30.40,5.0,Calm,Calm,-,N/A,,Mostly Cloudy,0,2013-02-09 13:52:00
8:52 AM,19.9,18.0,92,30.39,4.0,SSW,5.8,-,N/A,,Overcast,210,2013-02-09 14:52:00
9:52 AM,23.0,19.9,88,30.38,7.0,SSW,11.5,-,N/A,,Overcast,210,2013-02-09 15:52:00
10:52 AM,25.0,19.9,81,30.37,8.0,South,10.4,-,N/A,,Overcast,190,2013-02-09 16:52:00
11:52 AM,26.1,21.9,84,30.33,7.0,SSW,10.4,-,N/A,,Overcast,200,2013-02-09 17:52:00
12:52 PM,28.0,21.9,78,30.28,10.0,South,15.0,20.7,N/A,,Overcast,170,2013-02-09 18:52:00
1:52 PM,28.9,23.0,78,30.28,10.0,SSW,10.4,-,N/A,,Mostly Cloudy,200,2013-02-09 19:52:00
2:52 PM,30.0,24.1,79,30.26,10.0,South,8.1,-,N/A,,Mostly Cloudy,180,2013-02-09 20:52:00
3:52 PM,30.0,24.1,79,30.25,10.0,South,4.6,-,N/A,,Overcast,190,2013-02-09 21:52:00
4:52 PM,30.0,25.0,82,30.23,10.0,Calm,Calm,-,N/A,,Mostly Cloudy,0,2013-02-09 22:52:00
5:52 PM,28.9,25.0,85,30.22,9.0,South,5.8,-,N/A,,Mostly Cloudy,170,2013-02-09 23:52:00
6:42 PM,28.4,24.8,86,30.17,8.0,South,4.6,-,N/A,,Mostly Cloudy,170,2013-02-10 00:42:00
6:52 PM,28.0,25.0,88,30.21,7.0,South,6.9,-,N/A,,Mostly Cloudy,170,2013-02-10 00:52:00
7:52 PM,26.1,23.0,88,30.19,6.0,South,5.8,-,N/A,,Scattered Clouds,170,2013-02-10 01:52:00
8:52 PM,27.0,23.0,85,30.18,6.0,South,6.9,-,N/A,,Scattered Clouds,180,2013-02-10 02:52:00
9:52 PM,28.0,24.1,85,30.16,6.0,South,6.9,-,N/A,,Scattered Clouds,170,2013-02-10 03:52:00
10:52 PM,28.0,25.0,88,30.14,6.0,South,6.9,-,N/A,,Scattered Clouds,170,2013-02-10 04:52:00
11:52 PM,28.9,25.0,85,30.12,6.0,SSE,8.1,-,N/A,,Scattered Clouds,160,2013-02-10 05:52:00